Starlink 30514

operational
NORAD ID: 58028 Int'l Des: 2023-156 Owner: SPXS Country: US Constellation: starlink
LEOCIRCULAR

Über Starlink 30514

Beschreibung wird geladen...

Live-Position

3D-Globus wird geladen...

Nächste Überflüge

Höhenverlauf

Altitude vs Time

uPlot chart will show altitude changes over time

Zweizeiliger Elementsatz

1 58028U 23156A 25352.59984416 -.00011329 00000-0 -37090-3 0 9993
2 58028 53.1598 94.8275 0001406 56.5005 303.6130 15.30202307123907
Epoch: 18. Dez. 2025 • Age: 9 hours

Aktueller Status

Höhe 475.8 km
Geschwindigkeit 7.63 km/s
Subsatellitenpunkt 8.08°N, 165.3°W
Startdatum 9. Okt. 2023
Alter 2.1 years
Typ internet

Technische Details

Klassifizierung Payload
Masse 730.00 kg
Trockenmasse 700.00 kg
Gesamtmasse 730.00 kg
Länge 0.30 m
Durchmesser 4.10 m
Spannweite 29.00 m
Form Box + pan
Hersteller SPXS
Bus-Typ Starlink V2M
Phasenstatus In Orbit
Besitzer/Staat SPXS/US

Große Konstellationen

Loading constellations...